Wind_Speed
30 27 21 31 26 26 26 29 30 33 34 30 24 19 18 17 17 17 19 21 21 21 21 22 23 23 24 26 28 28 26 32 35 36 35 30 32 33 36 27 19 28 25 37 35
33 32 24 25 28 27 26 26 28 35 35 31 23 17 16 17 18 19 20 19 19 19 20 21 23 23 24 24 26 25 27 29 29 28 29 33 29 23 25 32 30 25 28 35 36
33 34 33 31 26 25 26 32 32 34 33 26 20 14 15 17 18 21 18 15 15 15 15 18 21 23 25 24 20 20 34 25 21 24 23 26 27 29 33 44 26 24 28 29 33
36 36 35 34 34 29 25 26 33 29 26 21 19 13 14 14 10 9 10 12 15 18 19 19 20 22 24 24 19 23 29 27 27 22 27 28 25 27 24 36 25 28 29 29 26
32 35 37 32 31 28 27 32 30 36 15 18 16 13 13 12 13 14 14 16 15 16 16 16 16 16 19 21 22 22 28 26 23 28 32 33 28 24 24 26 32 25 23 30 25
29 28 36 33 31 28 23 31 36 33 12 15 11 10 9 11 12 11 12 13 13 14 14 14 15 15 20 22 22 18 22 28 25 26 32 29 33 29 25 37 28 31 21 26 23
31 28 30 30 28 30 23 29 35 27 11 11 6 8 11 10 10 9 9 11 13 14 13 13 15 17 19 20 17 24 25 21 23 29 26 30 29 31 32 29 31 37 24 25 25
28 29 26 25 27 24 23 28 34 11 9 5 5 9 9 8 7 7 8 11 12 13 14 16 17 17 18 18 21 15 22 25 22 21 25 23 30 25 30 27 38 41 26 27 33
25 26 23 23 28 23 27 29 21 9 4 3 4 6 7 6 6 8 9 9 12 15 17 18 17 18 20 24 23 16 18 25 20 19 23 25 18 19 22 30 30 38 27 29 28
24 23 20 17 21 21 20 19 9 9 3 2 1 4 6 6 6 9 9 10 12 15 17 15 16 18 22 16 13 15 20 20 21 23 26 22 24 10 22 25 21 38 28 29 35
22 18 13 10 8 11 18 20 11 7 3 1 1 3 3 2 5 8 9 10 14 17 18 17 18 21 14 19 11 14 14 15 17 23 22 19 19 18 23 29 17 32 31 31 32
20 16 11 11 20 11 13 22 6 8 5 4 3 3 4 5 7 9 10 10 12 14 14 13 22 19 13 12 17 12 16 17 13 21 16 14 12 15 17 26 6 16 32 32 32
17 13 9 10 11 14 9 7 8 10 4 3 4 4 6 5 6 11 11 11 9 12 14 18 16 3 6 9 11 12 16 16 14 19 10 12 6 3 10 27 32 21 31 31 30
13 8 7 11 12 7 15 6 14 13 3 4 1 2 9 9 6 10 6 9 9 8 10 8 3 6 8 10 12 12 23 16 21 18 8 11 5 9 14 18 29 25 30 29 28
7 12 12 9 12 10 7 11 13 11 3 5 2 5 11 12 7 8 11 15 14 11 3 6 6 8 9 12 12 7 18 21 21 14 10 13 6 15 12 3 21 22 23 28 24
8 18 11 10 13 9 5 14 13 5 2 6 4 8 9 7 10 14 19 21 13 7 9 10 12 7 8 10 11 16 17 15 11 9 7 9 12 3 9 1 18 20 24 23 21
14 22 15 11 12 5 17 17 8 3 8 8 8 9 6 7 7 9 16 19 13 5 9 18 13 11 15 11 7 7 17 4 4 4 4 1 3 8 13 11 22 25 26 22 19
21 23 14 9 12 7 19 20 3 4 7 10 12 11 8 5 10 11 13 12 14 9 11 6 4 6 12 15 8 9 1 2 5 4 4 7 7 6 15 17 10 21 22 22 22
22 20 14 10 10 9 20 8 1 7 11 14 13 5 4 6 4 6 9 13 15 13 4 4 7 11 16 17 8 1 6 8 9 8 8 4 8 11 13 17 17 12 10 13 13
17 18 14 8 8 11 23 4 4 10 15 13 4 4 3 5 4 2 7 12 11 12 10 8 6 12 15 13 11 8 4 2 3 4 5 6 10 9 9 16 18 18 16 12 12
25 20 14 11 7 14 22 4 7 15 17 7 5 7 2 2 5 5 5 9 8 7 7 5 5 5 16 10 11 10 6 5 5 4 4 5 6 7 12 14 14 12 12 12 12
27 17 15 14 15 20 20 7 9 17 12 7 6 5 4 3 6 5 6 5 7 11 12 8 7 9 12 11 12 16 15 6 1 4 8 13 6 11 13 13 13 12 9 7 7
27 18 16 14 16 20 16 11 14 16 12 7 5 4 5 5 4 5 5 8 11 7 5 8 5 3 4 5 8 9 11 12 10 8 6 4 9 13 14 12 11 11 11 10 9
25 18 17 16 11 19 15 13 14 15 11 5 5 6 5 7 5 5 4 6 8 10 10 8 8 2 4 6 6 5 7 8 8 8 11 16 20 11 9 7 6 6 7 8 9
6 6 7 13 13 18 16 13 14 15 11 8 6 4 3 3 4 5 5 6 6 7 7 8 12 14 14 10 9 9 8 7 9 10 10 14 9 2 1 4 7 10 12 14 15
12 6 8 6 15 18 15 13 14 15 13 10 5 5 3 3 3 2 4 4 4 5 6 7 8 10 9 7 5 5 5 6 8 8 8 6 5 2 3 7 10 12 14 15 17
7 3 7 4 16 18 16 12 14 11 9 9 9 5 2 3 4 4 5 5 6 5 7 6 5 5 2 3 5 5 5 5 3 3 4 2 2 4 7 10 11 13 15 16 18
Wind_Direction
279 283 290 296 306 304 323 314 319 317 325 323 317 309 301 298 290 280 272 267 263 263 260 257 255 248 245 238 235 229 233 235 233 234 237 236 234 238 229 238 234 243 250 252 257
279 282 275 294 303 312 308 318 315 312 316 319 317 311 305 295 287 278 272 266 264 263 263 257 257 256 249 245 234 223 232 235 238 237 236 236 239 224 232 231 235 236 246 253 256
270 274 270 276 295 307 309 312 310 313 317 311 308 303 299 292 288 281 277 269 268 267 266 263 260 258 258 253 235 235 236 235 240 230 231 236 238 245 238 226 226 240 251 255 266
266 267 268 273 279 286 302 307 307 300 315 306 305 303 301 298 284 276 285 282 283 281 275 268 259 255 254 256 254 242 242 242 242 233 224 233 234 240 226 237 216 235 246 257 263
271 262 264 266 272 280 299 296 301 304 317 304 303 304 303 295 280 286 286 285 284 278 273 270 263 257 256 257 256 245 246 244 246 241 226 228 231 232 234 225 229 228 236 243 248
281 269 259 261 261 273 295 298 299 307 330 296 302 302 296 292 293 287 289 290 281 274 275 276 271 262 260 263 255 249 255 247 245 244 238 228 231 239 237 235 235 220 229 238 240
282 276 268 259 261 264 283 303 299 308 321 291 305 299 297 287 288 291 292 294 288 282 285 288 286 281 280 286 271 248 251 254 248 235 240 227 238 233 238 234 246 221 224 238 218
273 276 272 258 254 258 277 306 297 332 283 283 307 299 296 286 286 279 285 273 270 271 271 276 280 276 268 272 281 256 235 238 235 232 225 217 236 237 242 236 228 226 223 233 227
280 271 270 268 255 261 267 287 320 299 265 291 299 294 282 300 270 276 263 265 264 263 269 279 279 276 277 281 263 229 225 223 223 224 206 209 230 231 231 232 223 230 220 225 208
283 280 280 264 251 259 276 288 342 281 263 293 285 298 278 300 274 272 281 272 262 260 262 264 266 269 274 255 224 213 220 215 212 188 199 208 224 230 240 238 223 215 220 221 219
282 281 296 307 273 259 271 302 307 257 237 107 337 246 315 325 338 325 300 288 283 276 269 270 268 266 270 227 233 223 215 204 197 183 189 212 234 243 239 233 226 215 225 218 216
276 272 265 224 250 254 270 314 257 218 165 80 305 313 314 1 4 339 320 302 281 278 272 267 265 288 262 229 221 240 202 193 181 165 178 201 239 254 247 236 274 256 222 217 213
267 267 260 247 207 242 260 293 226 199 193 249 282 13 341 357 337 325 309 303 313 294 278 260 265 299 217 196 197 228 197 174 156 147 155 157 189 263 266 245 258 254 219 212 210
255 224 229 193 231 233 268 207 223 198 224 229 316 39 14 0 357 328 340 339 305 298 304 295 339 173 162 180 189 206 167 172 161 144 123 182 148 26 249 244 233 219 218 206 208
244 187 193 197 202 247 288 196 195 176 210 189 96 68 42 37 21 22 8 343 331 336 28 61 84 155 181 179 169 175 163 166 154 144 95 50 90 9 11 285 177 173 192 199 191
211 182 185 198 174 220 213 198 172 161 226 157 135 88 60 47 40 57 33 24 20 62 87 97 95 113 144 162 152 165 173 156 145 90 59 21 61 26 344 34 168 151 167 180 187
173 181 187 199 177 243 178 179 161 205 162 145 130 96 76 61 45 48 26 29 40 98 91 90 98 128 140 154 182 160 143 113 88 72 80 114 112 16 10 57 169 157 154 163 175
172 166 145 154 174 222 173 165 179 159 144 148 130 102 82 36 41 53 42 30 31 56 75 102 106 69 157 146 150 150 334 9 116 118 115 42 43 346 53 63 95 153 159 171 176
163 166 156 171 194 226 173 180 76 141 146 138 126 109 64 55 46 13 23 35 38 55 82 86 75 114 130 127 134 128 61 86 102 108 99 85 109 52 68 83 98 121 173 188 197
130 148 161 185 213 191 174 175 105 140 149 140 107 125 115 11 35 33 45 33 45 55 65 82 87 127 121 107 88 89 96 45 78 111 95 102 69 74 93 98 95 94 105 153 188
136 147 164 185 218 182 176 146 137 145 150 136 121 142 100 55 49 63 79 58 53 51 61 58 63 72 138 90 66 59 38 60 83 64 129 125 73 90 117 106 100 103 112 131 148
140 154 159 195 189 180 179 165 147 155 156 126 124 132 116 87 51 58 79 79 35 67 71 69 90 97 101 98 76 61 55 82 1 84 91 105 77 113 127 123 119 116 122 138 166
150 149 171 189 187 176 169 172 156 159 158 131 135 119 104 63 69 68 82 74 52 78 94 101 99 91 99 79 53 62 53 54 81 100 66 120 138 122 125 131 140 146 147 153 167
147 148 171 188 201 169 165 164 162 166 165 153 143 130 92 58 63 77 75 81 71 69 96 91 83 103 87 102 88 69 53 53 53 69 90 109 130 126 138 157 178 194 210 223 226
174 169 164 202 187 170 163 166 171 174 175 173 170 144 101 74 71 73 81 87 82 76 83 95 97 100 97 95 86 80 81 78 90 90 112 134 131 144 215 265 274 280 282 281 281
153 151 177 132 176 169 166 172 181 189 189 190 176 164 120 84 60 91 81 79 87 97 101 110 118 108 91 109 109 86 75 83 96 109 131 145 169 189 292 301 303 300 298 294 290
123 126 154 157 177 174 172 174 173 178 187 188 175 177 154 90 89 87 77 79 98 96 93 112 122 115 87 97 115 97 89 102 117 129 144 153 215 271 295 301 300 298 296 297 296
Height
3099 3097 3096 3094 3092 3091 3089 3086 3083 3081 3077 3072 3069 3066 3064 3062 3060 3060 3062 3062 3061 3060 3061 3062 3063 3065 3066 3067 3069 3071 3071 3069 3074 3079 3083 3089 3089 3090 3095 3096 3098 3096 3101 3096 3099
3092 3091 3090 3089 3088 3086 3083 3080 3077 3075 3074 3068 3064 3061 3059 3058 3057 3057 3058 3057 3056 3055 3057 3058 3058 3060 3062 3061 3063 3063 3063 3065 3072 3076 3078 3083 3083 3087 3088 3090 3093 3095 3097 3095 3100
3083 3083 3084 3082 3082 3080 3077 3075 3072 3069 3067 3063 3059 3056 3055 3055 3053 3053 3053 3053 3053 3052 3053 3054 3054 3056 3056 3056 3058 3058 3054 3063 3066 3070 3074 3074 3077 3080 3080 3080 3088 3094 3095 3092 3092
3074 3074 3074 3074 3074 3073 3071 3068 3067 3063 3062 3059 3056 3053 3052 3050 3055 3050 3049 3049 3049 3048 3048 3048 3050 3051 3051 3050 3052 3053 3053 3055 3058 3062 3064 3067 3071 3071 3073 3077 3085 3085 3085 3083 3085
3064 3065 3064 3067 3068 3066 3066 3064 3061 3059 3057 3054 3051 3049 3049 3048 3050 3047 3045 3045 3044 3044 3043 3043 3045 3046 3046 3046 3046 3046 3048 3050 3051 3054 3058 3062 3063 3066 3067 3071 3071 3080 3082 3083 3088
3055 3055 3056 3059 3060 3060 3059 3058 3057 3054 3052 3050 3048 3047 3046 3046 3045 3043 3041 3041 3040 3040 3040 3040 3040 3041 3041 3041 3041 3042 3042 3043 3046 3048 3051 3056 3059 3061 3064 3061 3067 3076 3079 3081 3084
3045 3046 3047 3051 3052 3052 3053 3053 3051 3049 3046 3045 3044 3044 3043 3043 3040 3039 3039 3037 3036 3036 3037 3037 3037 3037 3035 3035 3034 3035 3037 3038 3039 3042 3045 3053 3054 3053 3058 3062 3066 3070 3073 3075 3077
3037 3038 3039 3042 3045 3047 3049 3049 3047 3045 3042 3042 3041 3041 3039 3039 3037 3036 3035 3035 3035 3034 3034 3033 3033 3032 3031 3031 3029 3030 3032 3033 3035 3038 3042 3048 3047 3053 3053 3059 3064 3064 3068 3071 3073
3029 3030 3032 3034 3037 3042 3045 3044 3042 3041 3040 3039 3038 3037 3037 3036 3034 3032 3032 3032 3030 3030 3031 3030 3029 3028 3028 3027 3026 3026 3025 3028 3032 3033 3039 3043 3044 3048 3049 3054 3059 3062 3066 3070 3073
3022 3024 3025 3027 3031 3036 3039 3040 3039 3040 3038 3036 3037 3038 3035 3033 3031 3030 3029 3028 3027 3026 3025 3026 3025 3023 3022 3023 3020 3021 3023 3024 3027 3030 3035 3038 3040 3043 3044 3047 3050 3059 3061 3066 3069
3017 3018 3022 3023 3026 3031 3034 3036 3040 3039 3035 3035 3036 3034 3032 3031 3029 3027 3027 3026 3025 3024 3023 3022 3021 3018 3017 3018 3021 3020 3021 3021 3024 3027 3034 3038 3039 3042 3042 3045 3049 3053 3057 3062 3065
3010 3013 3018 3019 3024 3028 3030 3032 3035 3036 3034 3034 3034 3032 3030 3029 3027 3026 3026 3025 3023 3021 3019 3020 3016 3015 3014 3016 3020 3020 3020 3021 3022 3025 3034 3037 3038 3040 3042 3043 3045 3051 3053 3057 3060
3004 3008 3012 3014 3019 3024 3027 3028 3031 3032 3032 3033 3032 3030 3029 3028 3026 3025 3024 3022 3019 3017 3015 3014 3013 3012 3014 3016 3019 3019 3018 3021 3021 3026 3032 3036 3038 3037 3037 3039 3044 3046 3049 3054 3059
2998 3004 3008 3012 3020 3020 3023 3026 3028 3029 3032 3033 3030 3031 3028 3026 3026 3024 3022 3022 3018 3016 3013 3013 3011 3011 3014 3015 3017 3018 3017 3022 3021 3025 3029 3032 3033 3033 3035 3035 3036 3040 3046 3054 3058
2995 3000 3005 3011 3013 3017 3021 3023 3025 3028 3032 3032 3030 3029 3028 3029 3028 3026 3022 3018 3016 3016 3017 3016 3013 3014 3015 3016 3017 3020 3019 3021 3023 3026 3030 3030 3030 3034 3028 3031 3035 3037 3045 3054 3059
2989 2996 3003 3006 3011 3015 3019 3021 3025 3031 3029 3029 3029 3029 3029 3030 3029 3026 3024 3019 3017 3016 3017 3017 3017 3018 3017 3018 3018 3018 3021 3024 3026 3026 3028 3030 3031 3039 3036 3028 3033 3039 3046 3050 3056
2987 2993 2998 3004 3010 3013 3016 3021 3027 3026 3029 3029 3029 3029 3030 3031 3030 3028 3025 3022 3020 3021 3020 3020 3021 3019 3020 3020 3020 3019 3019 3026 3029 3031 3037 3038 3039 3039 3032 3032 3034 3038 3043 3051 3058
2985 2992 2997 3004 3008 3012 3016 3022 3024 3024 3025 3027 3029 3031 3032 3032 3031 3030 3028 3026 3023 3021 3022 3023 3024 3018 3022 3024 3024 3025 3026 3025 3027 3030 3036 3038 3042 3040 3036 3036 3035 3040 3048 3056 3061
2984 2991 2997 3003 3008 3012 3018 3022 3022 3024 3026 3028 3030 3033 3034 3034 3033 3031 3030 3027 3025 3023 3025 3025 3026 3024 3026 3026 3028 3027 3027 3026 3028 3033 3036 3046 3049 3044 3044 3045 3046 3048 3050 3055 3059
2985 2993 2999 3004 3008 3012 3018 3021 3023 3025 3027 3030 3031 3033 3035 3035 3034 3032 3032 3031 3028 3027 3026 3026 3026 3028 3030 3030 3030 3029 3030 3030 3029 3030 3038 3048 3046 3049 3050 3050 3051 3052 3053 3056 3059
2988 2995 3001 3005 3009 3014 3018 3021 3024 3026 3029 3032 3033 3034 3036 3036 3034 3033 3035 3035 3032 3030 3029 3028 3029 3033 3034 3033 3032 3033 3030 3029 3030 3032 3032 3039 3052 3051 3054 3054 3052 3055 3058 3063 3066
2991 2998 3002 3007 3012 3014 3019 3022 3024 3028 3031 3033 3034 3036 3036 3036 3036 3035 3036 3035 3034 3032 3032 3032 3033 3035 3038 3037 3036 3035 3035 3033 3033 3038 3036 3039 3054 3052 3051 3052 3055 3058 3061 3063 3065
2994 3000 3006 3010 3013 3016 3020 3023 3025 3029 3033 3035 3036 3037 3037 3037 3038 3038 3037 3037 3036 3034 3035 3036 3037 3037 3040 3043 3040 3038 3038 3037 3037 3037 3038 3039 3053 3052 3053 3053 3054 3056 3058 3061 3062
3000 3004 3009 3012 3015 3018 3021 3024 3027 3030 3034 3036 3037 3038 3039 3038 3039 3040 3040 3039 3039 3038 3037 3038 3038 3037 3039 3041 3043 3042 3040 3040 3038 3039 3043 3046 3051 3055 3056 3058 3059 3059 3059 3058 3058
3007 3010 3012 3012 3016 3019 3023 3026 3029 3032 3035 3037 3039 3039 3040 3041 3041 3041 3041 3040 3041 3041 3041 3041 3043 3043 3041 3041 3043 3043 3044 3045 3045 3046 3048 3051 3054 3055 3055 3055 3055 3054 3055 3055 3054
3013 3013 3014 3013 3018 3020 3024 3027 3030 3033 3036 3038 3040 3041 3042 3042 3042 3042 3042 3042 3042 3043 3043 3043 3045 3046 3046 3046 3046 3046 3046 3047 3047 3048 3049 3051 3053 3053 3053 3053 3053 3054 3054 3053 3052
3015 3014 3016 3016 3018 3021 3025 3028 3031 3035 3037 3039 3041 3042 3043 3043 3043 3043 3042 3042 3042 3043 3043 3044 3045 3045 3046 3046 3046 3048 3048 3047 3048 3048 3048 3049 3050 3051 3052 3053 3053 3053 3052 3051 3050